Time,TemperatureF,DewpointF,PressureIn,WindDirection,WindDirectionDegrees,WindSpeedMPH,WindSpeedGustMPH,Humidity,HourlyPrecipIn,Conditions,Clouds,dailyrainin,SoftwareType,DateUTC
2013-08-22 00:13:00,-999.0,-99.9,29.99,North,-999,-999.0,-999.0,-999,-99.99,,,0.00,weatherlink.com 1.10,2013-08-22 05:13:00,
2013-08-22 00:28:00,-999.0,-99.9,29.99,North,-999,-999.0,-999.0,-999,-99.99,,,0.00,weatherlink.com 1.10,2013-08-22 05:28:00,
2013-08-22 00:43:00,-999.0,-99.9,29.99,North,-999,-999.0,-999.0,-999,-99.99,,,0.00,weatherlink.com 1.10,2013-08-22 05:43:00,
2013-08-22 00:58:00,-999.0,-99.9,29.99,North,-999,-999.0,-999.0,-999,-99.99,,,0.00,weatherlink.com 1.10,2013-08-22 05:58:00,
2013-08-22 01:13:00,-999.0,-99.9,29.98,North,-999,-999.0,-999.0,-999,-99.99,,,0.00,weatherlink.com 1.10,2013-08-22 06:13:00,
2013-08-22 01:28:00,-999.0,-99.9,29.99,North,-999,-999.0,-999.0,-999,-99.99,,,0.00,weatherlink.com 1.10,2013-08-22 06:28:00,
2013-08-22 01:43:00,-999.0,-99.9,30.00,North,-999,-999.0,-999.0,-999,-99.99,,,0.00,weatherlink.com 1.10,2013-08-22 06:43:00,
2013-08-22 01:58:00,-999.0,-99.9,30.00,North,-999,-999.0,-999.0,-999,-99.99,,,0.00,weatherlink.com 1.10,2013-08-22 06:58:00,
2013-08-22 02:13:00,-999.0,-99.9,30.00,North,-999,-999.0,-999.0,-999,-99.99,,,0.00,weatherlink.com 1.10,2013-08-22 07:13:00,
2013-08-22 02:29:00,-999.0,-99.9,30.00,North,-999,-999.0,-999.0,-999,-99.99,,,0.00,weatherlink.com 1.10,2013-08-22 07:29:00,
2013-08-22 02:44:00,-999.0,-99.9,30.00,North,-999,-999.0,-999.0,-999,-99.99,,,0.00,weatherlink.com 1.10,2013-08-22 07:44:00,
2013-08-22 02:59:00,-999.0,-99.9,30.00,North,-999,-999.0,-999.0,-999,-99.99,,,0.00,weatherlink.com 1.10,2013-08-22 07:59:00,
2013-08-22 03:14:00,-999.0,-99.9,30.00,North,-999,-999.0,-999.0,-999,-99.99,,,0.00,weatherlink.com 1.10,2013-08-22 08:14:00,
2013-08-22 03:29:00,-999.0,-99.9,30.00,North,-999,-999.0,-999.0,-999,-99.99,,,0.00,weatherlink.com 1.10,2013-08-22 08:29:00,
2013-08-22 03:44:00,-999.0,-99.9,29.99,North,-999,-999.0,-999.0,-999,-99.99,,,0.00,weatherlink.com 1.10,2013-08-22 08:44:00,
2013-08-22 03:59:00,-999.0,-99.9,29.99,North,-999,-999.0,-999.0,-999,-99.99,,,0.00,weatherlink.com 1.10,2013-08-22 08:59:00,
2013-08-22 04:14:00,-999.0,-99.9,30.00,North,-999,-999.0,-999.0,-999,-99.99,,,0.00,weatherlink.com 1.10,2013-08-22 09:14:00,
2013-08-22 04:29:00,-999.0,-99.9,30.00,North,-999,-999.0,-999.0,-999,-99.99,,,0.00,weatherlink.com 1.10,2013-08-22 09:29:00,
2013-08-22 04:44:00,-999.0,-99.9,30.01,North,-999,-999.0,-999.0,-999,-99.99,,,0.00,weatherlink.com 1.10,2013-08-22 09:44:00,
2013-08-22 04:59:00,-999.0,-99.9,30.02,North,-999,-999.0,-999.0,-999,-99.99,,,0.00,weatherlink.com 1.10,2013-08-22 09:59:00,
2013-08-22 05:14:00,-999.0,-99.9,30.03,North,-999,-999.0,-999.0,-999,-99.99,,,0.00,weatherlink.com 1.10,2013-08-22 10:14:00,
2013-08-22 05:30:00,-999.0,-99.9,30.02,North,-999,-999.0,-999.0,-999,-99.99,,,0.00,weatherlink.com 1.10,2013-08-22 10:30:00,
2013-08-22 05:45:00,-999.0,-99.9,30.03,North,-999,-999.0,-999.0,-999,-99.99,,,0.00,weatherlink.com 1.10,2013-08-22 10:45:00,
2013-08-22 07:30:00,-999.0,-99.9,30.04,North,-999,-999.0,-999.0,-999,-99.99,,,0.00,weatherlink.com 1.10,2013-08-22 12:30:00,
2013-08-22 07:45:00,-999.0,-99.9,30.05,North,-999,-999.0,-999.0,-999,-99.99,,,0.00,weatherlink.com 1.10,2013-08-22 12:45:00,
2013-08-22 08:00:00,-999.0,-99.9,30.06,North,-999,-999.0,-999.0,-999,-99.99,,,0.00,weatherlink.com 1.10,2013-08-22 13:00:00,
2013-08-22 08:15:00,-999.0,-99.9,30.06,North,-999,-999.0,-999.0,-999,-99.99,,,0.00,weatherlink.com 1.10,2013-08-22 13:15:00,
2013-08-22 08:31:00,-999.0,-99.9,30.06,North,-999,-999.0,-999.0,-999,-99.99,,,0.00,weatherlink.com 1.10,2013-08-22 13:31:00,
2013-08-22 08:46:00,-999.0,-99.9,30.06,North,-999,-999.0,-999.0,-999,-99.99,,,0.00,weatherlink.com 1.10,2013-08-22 13:46:00,
2013-08-22 09:01:00,-999.0,-99.9,30.06,North,-999,-999.0,-999.0,-999,-99.99,,,0.00,weatherlink.com 1.10,2013-08-22 14:01:00,
2013-08-22 09:16:00,-999.0,-99.9,30.09,North,-999,-999.0,-999.0,-999,-99.99,,,0.00,weatherlink.com 1.10,2013-08-22 14:16:00,
2013-08-22 09:31:00,-999.0,-99.9,30.09,North,-999,-999.0,-999.0,-999,-99.99,,,0.00,weatherlink.com 1.10,2013-08-22 14:31:00,
2013-08-22 09:46:00,74.5,69.0,30.08,NW,313,0.0,-999.0,83,-99.99,,,0.00,weatherlink.com 1.10,2013-08-22 14:46:00,
2013-08-22 10:01:00,74.8,69.0,30.09,NW,313,0.0,-999.0,83,-99.99,,,0.00,weatherlink.com 1.10,2013-08-22 15:01:00,
2013-08-22 10:16:00,74.8,69.0,30.08,NW,313,0.0,-999.0,82,-99.99,,,0.00,weatherlink.com 1.10,2013-08-22 15:16:00,
2013-08-22 10:31:00,74.6,69.0,30.09,NW,313,0.0,-999.0,83,-99.99,,,0.00,weatherlink.com 1.10,2013-08-22 15:31:00,
2013-08-22 10:46:00,74.8,69.0,30.09,NW,313,0.0,-999.0,82,-99.99,,,0.00,weatherlink.com 1.10,2013-08-22 15:46:00,
2013-08-22 11:01:00,75.4,69.0,30.09,NW,313,0.0,-999.0,81,-99.99,,,0.00,weatherlink.com 1.10,2013-08-22 16:01:00,
2013-08-22 11:16:00,75.8,69.0,30.07,NW,314,0.0,-999.0,79,-99.99,,,0.00,weatherlink.com 1.10,2013-08-22 16:16:00,
2013-08-22 11:32:00,75.9,69.0,30.05,NE,52,0.0,-999.0,79,-99.99,,,0.00,weatherlink.com 1.10,2013-08-22 16:32:00,
2013-08-22 11:47:00,77.1,69.0,30.09,SW,221,0.0,-999.0,76,-99.99,,,0.00,weatherlink.com 1.10,2013-08-22 16:47:00,
2013-08-22 12:02:00,77.6,69.0,30.08,SSE,156,0.0,-999.0,74,-99.99,,,0.00,weatherlink.com 1.10,2013-08-22 17:02:00,
2013-08-22 12:17:00,77.9,70.0,30.06,SE,142,0.0,-999.0,76,-99.99,,,0.00,weatherlink.com 1.10,2013-08-22 17:17:00,
2013-08-22 12:32:00,77.9,70.0,30.06,ESE,104,0.0,-999.0,76,-99.99,,,0.00,weatherlink.com 1.10,2013-08-22 17:32:00,
2013-08-22 12:47:00,78.9,71.0,30.07,ESE,119,0.0,-999.0,76,-99.99,,,0.00,weatherlink.com 1.10,2013-08-22 17:47:00,
2013-08-22 13:02:00,79.8,70.0,30.07,SE,128,0.0,-999.0,73,-99.99,,,0.00,weatherlink.com 1.10,2013-08-22 18:02:00,
2013-08-22 13:17:00,79.9,71.0,30.07,SE,127,0.0,-999.0,74,-99.99,,,0.00,weatherlink.com 1.10,2013-08-22 18:17:00,
2013-08-22 13:32:00,80.1,69.0,30.07,South,182,0.0,-999.0,69,-99.99,,,0.00,weatherlink.com 1.10,2013-08-22 18:32:00,
2013-08-22 13:47:00,79.5,69.0,30.07,South,169,0.0,-999.0,71,-99.99,,,0.00,weatherlink.com 1.10,2013-08-22 18:47:00,
2013-08-22 14:02:00,79.2,70.0,30.07,SSE,154,4.0,-999.0,74,-99.99,,,0.00,weatherlink.com 1.10,2013-08-22 19:02:00,
2013-08-22 14:17:00,78.8,69.0,30.07,SSE,156,0.0,-999.0,73,-99.99,,,0.00,weatherlink.com 1.10,2013-08-22 19:17:00,
2013-08-22 14:32:00,79.1,70.0,30.07,SE,132,0.0,-999.0,74,-99.99,,,0.00,weatherlink.com 1.10,2013-08-22 19:32:00,
2013-08-22 14:48:00,79.3,70.0,30.07,SE,138,0.0,-999.0,74,-99.99,,,0.00,weatherlink.com 1.10,2013-08-22 19:48:00,
2013-08-22 15:03:00,79.6,69.0,30.07,SE,138,0.0,-999.0,71,-99.99,,,0.00,weatherlink.com 1.10,2013-08-22 20:03:00,
2013-08-22 15:18:00,79.2,69.0,30.07,South,171,0.0,-999.0,72,-99.99,,,0.00,weatherlink.com 1.10,2013-08-22 20:18:00,
2013-08-22 15:33:00,80.0,70.0,30.07,SSE,149,0.0,-999.0,71,-99.99,,,0.00,weatherlink.com 1.10,2013-08-22 20:33:00,
2013-08-22 15:48:00,80.4,70.0,30.07,SE,141,0.0,-999.0,71,-99.99,,,0.00,weatherlink.com 1.10,2013-08-22 20:48:00,
2013-08-22 16:03:00,80.2,70.0,30.06,SE,128,0.0,-999.0,71,-99.99,,,0.00,weatherlink.com 1.10,2013-08-22 21:03:00,
2013-08-22 16:18:00,79.9,70.0,30.06,SSE,158,0.0,-999.0,71,-99.99,,,0.00,weatherlink.com 1.10,2013-08-22 21:18:00,
2013-08-22 16:33:00,79.5,70.0,30.06,SSE,165,0.0,-999.0,73,-99.99,,,0.00,weatherlink.com 1.10,2013-08-22 21:33:00,
2013-08-22 16:48:00,79.0,71.0,30.07,South,182,1.0,-999.0,76,-99.99,,,0.00,weatherlink.com 1.10,2013-08-22 21:48:00,
2013-08-22 17:03:00,78.5,70.0,30.07,South,169,0.0,-999.0,75,-99.99,,,0.00,weatherlink.com 1.10,2013-08-22 22:03:00,
2013-08-22 17:18:00,78.6,70.0,30.06,South,169,2.0,-999.0,76,-99.99,,,0.00,weatherlink.com 1.10,2013-08-22 22:18:00,
2013-08-22 17:33:00,78.4,71.0,30.06,SSE,168,0.0,-999.0,77,-99.99,,,0.00,weatherlink.com 1.10,2013-08-22 22:33:00,
2013-08-22 17:48:00,79.0,72.0,30.06,SSE,168,0.0,-999.0,78,-99.99,,,0.00,weatherlink.com 1.10,2013-08-22 22:48:00,
2013-08-22 18:03:00,79.5,71.0,30.06,SSE,168,0.0,-999.0,76,-99.99,,,0.00,weatherlink.com 1.10,2013-08-22 23:03:00,
2013-08-22 18:19:00,79.8,72.0,30.05,SSE,168,0.0,-999.0,78,-99.99,,,0.00,weatherlink.com 1.10,2013-08-22 23:19:00,
2013-08-22 18:34:00,81.3,72.0,30.05,SSE,168,0.0,-999.0,74,-99.99,,,0.00,weatherlink.com 1.10,2013-08-22 23:34:00,
2013-08-22 18:49:00,81.9,72.0,30.05,SSE,168,0.0,-999.0,73,-99.99,,,0.00,weatherlink.com 1.10,2013-08-22 23:49:00,
2013-08-22 19:04:00,81.5,72.0,30.05,SSE,168,0.0,-999.0,73,-99.99,,,0.00,weatherlink.com 1.10,2013-08-23 00:04:00,
2013-08-22 19:19:00,80.7,72.0,30.05,SSE,168,0.0,-999.0,74,-99.99,,,0.00,weatherlink.com 1.10,2013-08-23 00:19:00,
2013-08-22 19:34:00,79.9,72.0,30.05,SW,223,0.0,-999.0,76,-99.99,,,0.00,weatherlink.com 1.10,2013-08-23 00:34:00,
2013-08-22 19:49:00,78.6,71.0,30.05,SW,223,0.0,-999.0,77,-99.99,,,0.00,weatherlink.com 1.10,2013-08-23 00:49:00,
2013-08-22 20:04:00,-999.0,-99.9,30.05,North,-999,-999.0,-999.0,-999,-99.99,,,0.00,weatherlink.com 1.10,2013-08-23 01:04:00,
2013-08-22 20:19:00,-999.0,-99.9,30.05,North,-999,-999.0,-999.0,-999,-99.99,,,0.00,weatherlink.com 1.10,2013-08-23 01:19:00,
2013-08-22 20:34:00,-999.0,-99.9,30.05,North,-999,-999.0,-999.0,-999,-99.99,,,0.00,weatherlink.com 1.10,2013-08-23 01:34:00,
2013-08-22 20:49:00,-999.0,-99.9,30.06,North,-999,-999.0,-999.0,-999,-99.99,,,0.00,weatherlink.com 1.10,2013-08-23 01:49:00,
2013-08-22 21:04:00,-999.0,-99.9,30.06,North,-999,-999.0,-999.0,-999,-99.99,,,0.00,weatherlink.com 1.10,2013-08-23 02:04:00,
2013-08-22 21:19:00,-999.0,-99.9,30.06,North,-999,-999.0,-999.0,-999,-99.99,,,0.00,weatherlink.com 1.10,2013-08-23 02:19:00,
2013-08-22 21:35:00,-999.0,-99.9,30.07,North,-999,-999.0,-999.0,-999,-99.99,,,0.00,weatherlink.com 1.10,2013-08-23 02:35:00,
2013-08-22 21:50:00,-999.0,-99.9,30.07,North,-999,-999.0,-999.0,-999,-99.99,,,0.00,weatherlink.com 1.10,2013-08-23 02:50:00,
2013-08-22 22:05:00,-999.0,-99.9,30.07,North,-999,-999.0,-999.0,-999,-99.99,,,0.00,weatherlink.com 1.10,2013-08-23 03:05:00,
2013-08-22 22:20:00,-999.0,-99.9,30.07,North,-999,-999.0,-999.0,-999,-99.99,,,0.00,weatherlink.com 1.10,2013-08-23 03:20:00,
2013-08-22 22:35:00,-999.0,-99.9,30.08,North,-999,-999.0,-999.0,-999,-99.99,,,0.00,weatherlink.com 1.10,2013-08-23 03:35:00,
2013-08-22 22:50:00,-999.0,-99.9,30.08,North,-999,-999.0,-999.0,-999,-99.99,,,0.00,weatherlink.com 1.10,2013-08-23 03:50:00,
2013-08-22 23:05:00,-999.0,-99.9,30.08,North,-999,-999.0,-999.0,-999,-99.99,,,0.00,weatherlink.com 1.10,2013-08-23 04:05:00,
2013-08-22 23:20:00,-999.0,-99.9,30.09,North,-999,-999.0,-999.0,-999,-99.99,,,0.00,weatherlink.com 1.10,2013-08-23 04:20:00,
2013-08-22 23:35:00,-999.0,-99.9,30.09,North,-999,-999.0,-999.0,-999,-99.99,,,0.00,weatherlink.com 1.10,2013-08-23 04:35:00,
2013-08-22 23:50:00,-999.0,-99.9,30.10,North,-999,-999.0,-999.0,-999,-99.99,,,0.00,weatherlink.com 1.10,2013-08-23 04:50:00,